Regional Weather Roundup
Issued by NWS Columbia, SC

Home | Current Version | Previous Version | Text Only | Print | Product List | Glossary On
Versions: 1 2 3 4 5 6 7 8 9 10 11 12 13 14 15 16 17 18 19 20 21 22 23 24 25 26 27 28 29 30 31 32 33 34 35 36 37 38 39 40 41 42 43 44 45 46 47 48 49 50
000
ASUS42 KCAE 051510
RWRCAE
REGIONAL WEATHER ROUNDUP
NATIONAL WEATHER SERVICE COLUMBIA SC
1100 AM EDT TUE MAY 05 2015

NOTE: "FAIR" INDICATES FEW OR NO CLOUDS BELOW 12,000 FEET WITH NO
SIGNIFICANT WEATHER AND/OR OBSTRUCTIONS TO VISIBILITY.

NOT ALL STATIONS ARE QUALITY CONTROLLED BY THE NATIONAL
WEATHER SERVICE. USE DATA WITH CAUTION...ESPECIALLY
DEWPOINT OBSERVATIONS.

SCZ001>056-GAZ040-063>065-077-051600-
...UPSTATE SOUTH CAROLINA...

CITY           SKY/WX    TMP DP  RH WIND       PRES   REMARKS
ANDERSON       SUNNY     72  56  57 CALM      30.35F
LIBERTY        SUNNY     74  57  55 W6        30.34F
SPARTANBURG    SUNNY     73  54  49 W6        30.35S
GREENVILLE     SUNNY     74  54  49 W7        30.36S
GREENWOOD      SUNNY     73  54  51 VRB3      30.37S
GREER          SUNNY     74  55  51 W3        30.34S
ROCK HILL      SUNNY     73  55  53 W5        30.37R
CHESTER        SUNNY     73  52  46 CALM      30.37S
LAURENS        SUNNY     72  61  68 S3        30.35F


...CENTRAL SOUTH CAROLINA...

CITY           SKY/WX    TMP DP  RH WIND       PRES   REMARKS
COLUMBIA APT   SUNNY     74  53  48 CALM      30.35S
COLUMBIA OWENS SUNNY     74  54  49 VRB3      30.37S
DARLINGTON     SUNNY     75  52  43 SE5       30.37S
FLORENCE       SUNNY     75  53  46 E7        30.36S
ORANGEBURG     SUNNY     74  53  48 E5        30.35S
NEWBERRY       SUNNY     72  54  53 CALM      30.39S
AIKEN          FAIR      72  50  46 E5        30.38F
BARNWELL       FAIR      75  55  50 NE8       30.35S
MANNING        FAIR      73  43  33 CALM      30.35S
CAMDEN         FAIR      73  54  49 S5        30.37S
LANCASTER      SUNNY     72  54  53 SW3       30.37S
WINNSBORO      SUNNY     73  52  46 CALM      30.36S


...EASTERN AND COASTAL SOUTH CAROLINA...

CITY           SKY/WX    TMP DP  RH WIND       PRES   REMARKS
MYRTLE BEACH   SUNNY     75  55  50 SE12      30.37S
N MYRTLE BCH   SUNNY     75  53  46 E10       30.36R
CONWAY         FAIR      75  55  50 E3        30.36R
MARION         FAIR      73  52  46 E3        30.36S
HARTSVILLE     FAIR      73  50  43 S3        30.37S
FLORENCE       SUNNY     75  53  46 E7        30.36S
DARLINGTON     SUNNY     75  52  43 SE5       30.37S
CHARLESTON APT MOSUNNY   75  54  47 SE9       30.34R
MOUNT PLEASANT FAIR      75  57  53 MISG      30.34S
WALTERBORO     MOSUNNY   73  55  53 NE8       30.34S
BEAUFORT       MOSUNNY   76  58  53 NE8       30.32S


...EASTERN GEORGIA...

CITY           SKY/WX    TMP DP  RH WIND       PRES   REMARKS
AUGUSTA BUSH F SUNNY     74  57  55 VRB3      30.34F
AUGUSTA DANIEL SUNNY     75  53  46 E7        30.35F
THOMSON        SUNNY     75  60  59 NE3       30.39S
WASHINGTON     FAIR      77  63  61 CALM      30.35S
CLAXTON        FAIR      73  59  60 E9G16     30.31S
SYLVANIA       SUNNY     75  59  58 E5        30.33S
STATESBORO       N/A     74  58  55 E9        30.32F
SAVANNAH       PTSUNNY   77  56  48 NE10G18   30.31S


...SOUTHERN NORTH CAROLINA...

CITY           SKY/WX    TMP DP  RH WIND       PRES   REMARKS
CHARLOTTE      MOSUNNY   74  55  51 VRB3      30.36S
MONROE         SUNNY     74  55  51 VRB5      30.35F
WADESBORO      SUNNY     73  53  49 SE3       30.36S
ROCKINGHAM     SUNNY     73  52  46 CALM      30.36F
RUTHERFORDTON  SUNNY     71  58  62 S8        30.35F
ASHEVILLE      SUNNY     72  52  49 NW14      30.38S

$$


USA.gov is the U.S. government's official web portal to all federal, state and local government web resources and services.